{"data":{"norad_id":63060,"intl_designator":"2025-035J","name":"STARLINK-11403 [DTC]","alt_names":[],"object_type":"PAYLOAD","status":"ACTIVE","operator":null,"country":"US","launch_date":"2025-02-21","launch_site_code":"AFETR","launch_vehicle":null,"mission":null,"orbit_class":"UNKNOWN","rcs_meters":null,"size_class":null,"mass_kg":null,"dimensions":null,"purposes":["comms"],"wikipedia_slug":null,"has_3d_model":false,"image_url":null,"decayed_at":null,"tle_current":{"epoch":"2026-05-24T18:12:45.322560Z","epoch_age_seconds":89911,"freshness":"FRESH","line1":"1 63060U 25035J   26144.75885790  .00180074  00000+0  13782-2 0  9998","line2":"2 63060  42.9990 276.9034 0003071 237.1374 122.9198 15.70809969 73184","mean_motion":15.70809969,"eccentricity":0.0003071,"inclination_deg":42.999,"raan_deg":276.9034,"arg_perigee_deg":237.1374,"mean_anomaly_deg":122.9198,"bstar":0.0013782,"rev_number":7318,"period_min":91.67245105509,"perigee_km":354.51266528824,"apogee_km":358.64912902067,"semimajor_km":6734.7178971545,"source":"CELESTRAK","updated_at":"2026-05-25T13:38:19.872767Z"}}}